Location: Ellerstadt
(49.4644°N, 8.2615°E)
Time: 05:04:07
(UTC+00:00)

SJ 16-02 - Pass Details

Date: 03 March 2021
Orbit: 605 x 617 km, 75.0° (Epoch: 11 April)

Event Time Altitude Azimuth Distance (km) Brightness Sun altitude
Rises 17:55:38 0° 351° (N) 2,884 4.9 -7.7°
Reaches altitude 10° 17:59:43 10° 28° (NNE) 1,977 3.7 -8.4°
Maximum altitude 18:00:54 11° 44° (NE) 1,914 3.5 -8.5°
Drops below altitude 10° 18:02:06 10° 60° (ENE) 1,976 3.4 -8.7°
Enters shadow 18:02:37 - 66° (ENE) 2,038 3.4 -8.8°
